Tracking 28790 objects as of 19-Apr-2024
HD Live streaming from Space Station
objects crossing your sky now

STARLINK-1848

Track STARLINK-1848 now!
10-day predictions
STARLINK-1848 is classified as:


NORAD ID: 46740
Int'l Code: 2020-074B
Perigee: 553.4 km
Apogee: 555.3 km
Inclination: 53.1 °
Period: 95.6 minutes
Semi major axis: 6925 km
RCS: Unknown
Launch date: October 24, 2020
Source: United States (US)
Launch site: AIR FORCE EASTERN TEST RANGE (AFETR)
Your satellite tracking list
Your tracking list is empty




NASA's NSSDC Master Catalog

Two Line Element Set (TLE):
1 46740U 20074B   24109.44463470 -.00001592  00000-0 -87991-4 0  9999
2 46740  53.0529 185.2421 0001346  91.7035 268.4108 15.06395103192564
Source of the keplerian elements: AFSPC